| time (UTC) | temp F | wind direction | speed knots | gust knots | rain 1hr in | rain 24hr in | rain mn in | humidity % | barometer mb |
| 20260502231543 | 58 | 316 | 1.7 | 5.2 | 0.00 | 0.00 | 0.00 | 57 | 1008.3 |
| 20260502230039 | 58 | 307 | 0.0 | 0.0 | 0.00 | 0.00 | 0.00 | 62 | 1007.9 |
| 20260502223033 | 60 | 250 | 0.0 | 1.7 | 0.00 | 0.00 | 0.00 | 55 | 1007.7 |
| 20260502221529 | 61 | 271 | 0.0 | 0.0 | 0.00 | 0.00 | 0.00 | 51 | 1007.6 |
| 20260502220032 | 61 | 253 | 0.0 | 2.6 | 0.00 | 0.00 | 0.00 | 50 | 1007.6 |
| 20260502213031 | 62 | 224 | 0.0 | 3.5 | 0.00 | 0.00 | 0.00 | 47 | 1007.7 |
| 20260502211524 | 62 | 204 | 0.0 | 4.3 | 0.00 | 0.00 | 0.00 | 47 | 1007.7 |
| 20260502210024 | 63 | 203 | 0.0 | 3.5 | 0.00 | 0.00 | 0.00 | 47 | 1007.8 |
| 20260502203021 | 63 | 226 | 0.0 | 5.2 | 0.00 | 0.00 | 0.00 | 48 | 1007.9 |
| 20260502201531 | 64 | 299 | 0.0 | 6.1 | 0.00 | 0.00 | 0.00 | 48 | 1007.9 |
| 20260502200018 | 64 | 215 | 0.9 | 5.2 | 0.00 | 0.00 | 0.00 | 49 | 1007.9 |
| 20260502193017 | 65 | 238 | 1.7 | 8.7 | 0.00 | 0.00 | 0.00 | 47 | 1007.8 |
| 20260502191518 | 65 | 153 | 0.0 | 10.4 | 0.00 | 0.00 | 0.00 | 45 | 1007.9 |
| 20260502190015 | 65 | 229 | 2.6 | 9.6 | 0.00 | 0.00 | 0.00 | 43 | 1007.8 |
| 20260502183010 | 66 | 210 | 4.3 | 8.7 | 0.00 | 0.00 | 0.00 | 41 | 1007.5 |
| 20260502181505 | 67 | 282 | 2.6 | 11.3 | 0.00 | 0.00 | 0.00 | 40 | 1007.5 |
| 20260502163108 | 70 | 262 | 1.7 | 8.7 | 0.00 | 0.00 | 0.00 | 38 | 1007.3 |
| 20260502161554 | 70 | 260 | 1.7 | 7.0 | 0.00 | 0.00 | 0.00 | 40 | 1007.5 |
| 20260502151543 | 69 | 276 | 4.3 | 9.6 | 0.00 | 0.00 | 0.00 | 39 | 1008.4 |
| 20260502123016 | 71 | 241 | 5.2 | 15.6 | 0.00 | 0.00 | 0.00 | 41 | 1010.2 |
| 20260502121514 | 71 | 200 | 4.3 | 16.5 | 0.00 | 0.00 | 0.00 | 42 | 1010.6 |
| 20260502114611 | 70 | 8 | 7.0 | 22.6 | 0.00 | 0.00 | 0.00 | 40 | 1010.8 |
| 20260502113011 | 70 | 200 | 5.2 | 13.9 | 0.00 | 0.00 | 0.00 | 41 | 1011.1 |
| 20260502111508 | 69 | 210 | 4.3 | 11.3 | 0.00 | 0.00 | 0.00 | 42 | 1011.2 |
| 20260502110008 | 69 | 219 | 3.5 | 10.4 | 0.00 | 0.00 | 0.00 | 42 | 1011.4 |
| 20260502104605 | 68 | 269 | 0.9 | 10.4 | 0.00 | 0.00 | 0.00 | 44 | 1011.8 |
| 20260502103004 | 67 | 302 | 2.6 | 9.6 | 0.00 | 0.00 | 0.00 | 44 | 1012.0 |
| 20260502101502 | 67 | 322 | 4.3 | 13.0 | 0.00 | 0.00 | 0.00 | 44 | 1012.2 |
| 20260502091502 | 65 | 239 | 5.2 | 17.4 | 0.00 | 0.00 | 0.00 | 44 | 1012.8 |
| 20260502070053 | 60 | 208 | 4.3 | 9.6 | 0.00 | 0.00 | 0.00 | 46 | 1014.1 |
| 20260502064548 | 59 | 156 | 4.3 | 10.4 | 0.00 | 0.00 | 0.00 | 47 | 1014.3 |
| 20260502063044 | 58 | 231 | 1.7 | 8.7 | 0.00 | 0.00 | 0.00 | 49 | 1014.3 |
| 20260502061544 | 57 | 282 | 2.6 | 11.3 | 0.00 | 0.00 | 0.00 | 49 | 1014.4 |
| 20260502060045 | 57 | 206 | 1.7 | 8.7 | 0.00 | 0.00 | 0.00 | 51 | 1014.6 |
| 20260502054541 | 56 | 198 | 4.3 | 10.4 | 0.00 | 0.00 | 0.00 | 52 | 1014.6 |
| 20260502053043 | 55 | 228 | 2.6 | 9.6 | 0.00 | 0.00 | 0.00 | 54 | 1014.6 |
| 20260502051539 | 55 | 226 | 2.6 | 9.6 | 0.00 | 0.00 | 0.00 | 54 | 1014.7 |
| 20260502050040 | 54 | 232 | 4.3 | 11.3 | 0.00 | 0.00 | 0.00 | 55 | 1014.7 |
| 20260502044544 | 54 | 239 | 4.3 | 11.3 | 0.00 | 0.00 | 0.00 | 56 | 1014.7 |
| 20260502043044 | 54 | 214 | 3.5 | 11.3 | 0.00 | 0.00 | 0.00 | 56 | 1014.7 |
| 20260502041545 | 53 | 268 | 3.5 | 8.7 | 0.00 | 0.00 | 0.00 | 58 | 1014.7 |
| 20260502040036 | 53 | 197 | 4.3 | 10.4 | 0.00 | 0.00 | 0.00 | 58 | 1014.8 |
| 20260502034538 | 53 | 225 | 4.3 | 12.2 | 0.00 | 0.00 | 0.00 | 59 | 1014.9 |
| 20260502033033 | 53 | 228 | 3.5 | 8.7 | 0.00 | 0.00 | 0.00 | 59 | 1015.0 |
| 20260502031532 | 53 | 200 | 7.0 | 13.0 | 0.00 | 0.00 | 0.00 | 59 | 1015.0 |
| 20260502030030 | 53 | 243 | 4.3 | 12.2 | 0.00 | 0.00 | 0.00 | 60 | 1015.1 |
| 20260502024528 | 53 | 290 | 4.3 | 12.2 | 0.00 | 0.00 | 0.00 | 60 | 1015.3 |
| 20260502023026 | 53 | 275 | 5.2 | 12.2 | 0.00 | 0.00 | 0.00 | 60 | 1015.3 |
| 20260502021525 | 53 | 277 | 3.5 | 10.4 | 0.00 | 0.00 | 0.00 | 60 | 1015.5 |
| 20260502020022 | 53 | 198 | 4.3 | 10.4 | 0.00 | 0.00 | 0.00 | 60 | 1015.6 |
| 20260502014539 | 53 | 226 | 2.6 | 10.4 | 0.00 | 0.00 | 0.00 | 59 | 1015.8 |
| 20260502013018 | 53 | 165 | 2.6 | 6.1 | 0.00 | 0.00 | 0.00 | 59 | 1015.8 |
| 20260502011515 | 54 | 193 | 0.9 | 7.0 | 0.00 | 0.00 | 0.00 | 58 | 1016.1 |
| 20260502010012 | 54 | 278 | 0.0 | 4.3 | 0.00 | 0.00 | 0.00 | 59 | 1016.3 |
| 20260502004510 | 54 | 193 | 2.6 | 7.8 | 0.00 | 0.00 | 0.00 | 57 | 1016.4 |
| 20260502003012 | 54 | 198 | 3.5 | 7.8 | 0.00 | 0.00 | 0.00 | 57 | 1016.5 |
| 20260502001515 | 54 | 339 | 4.3 | 13.0 | 0.00 | 0.00 | 0.00 | 56 | 1016.6 |
| 20260502000020 | 55 | 243 | 4.3 | 11.3 | 0.00 | 0.00 | 0.00 | 56 | 1016.7 |
| 20260501234501 | 55 | 210 | 3.5 | 10.4 | 0.00 | 0.00 | 0.00 | 55 | 1016.8 |
| 20260501233103 | 55 | 236 | 5.2 | 10.4 | 0.00 | 0.00 | 0.00 | 54 | 1016.8 |